Date String (YYYY-MM-DD hh:mm:ss) UTC,Instrument flags,Ambient pressure (hPa),Sample flow (lpm),Bypass flow (lpm),Sample temperature (°C),Ambient temperature (°C),ASC tube jacket temperature (°C),LED temperature (°C),Box temperature (°C),Sample RH (%),Span deviation,Mass concentration (μg/m³),Mass concentration (μg/m³),Mass concentration (μg/m³)
DateTimeUTC,F1_M11,P_M11,Q1_M11,Q2_M11,T1_M11,T2_M11,T3_M11,T4_M11,T5_M11,U1_M11,ZSPAN_M11,X0_M11,X2_M11,X1_M11
2022-03-04 14:00:00,,0819.5,5.00,0.00,25.5,24.7,00.0,34.5,27.3,12.3,0001.0,0016.52,0008.28,0007.09
2022-03-04 14:01:00,,0819.5,5.00,0.00,25.5,24.7,00.0,34.5,27.3,12.3,0001.2,0016.64,0008.17,0006.99
2022-03-04 14:02:00,,0819.5,5.00,0.00,25.5,24.6,00.0,34.5,27.3,12.4,0001.8,0017.48,0008.26,0007.05
2022-03-04 14:03:00,,0819.6,5.00,0.00,25.5,24.6,00.0,34.5,27.3,12.5,0001.6,0020.00,0008.42,0007.16
2022-03-04 14:04:00,,0819.6,5.01,0.00,25.5,24.6,00.0,34.5,27.3,12.5,0001.2,0020.26,0008.51,0007.22
2022-03-04 14:05:00,,0819.6,4.99,0.00,25.5,24.6,00.0,34.5,27.3,12.5,0001.4,0020.07,0008.57,0007.28
2022-03-04 14:06:00,,0819.6,5.00,0.00,25.5,24.6,00.0,34.5,27.3,12.6,0001.5,0020.81,0008.79,0007.46
2022-03-04 14:07:00,,0819.7,5.00,0.00,25.5,24.6,00.0,34.5,27.2,12.8,0001.2,0021.67,0009.18,0007.81
2022-03-04 14:08:00,,0819.8,5.00,0.00,25.5,24.6,00.0,34.5,27.3,13.2,0001.2,0022.48,0009.75,0008.27
2022-03-04 14:09:00,,0819.7,5.00,0.00,25.5,24.6,00.0,34.5,27.3,13.1,0001.0,0024.04,0010.33,0008.73
2022-03-04 14:10:00,,0819.7,5.00,0.00,25.5,24.6,00.0,34.5,27.2,12.9,0000.9,0025.01,0010.68,0009.04
2022-03-04 14:11:00,,0819.8,5.00,0.00,25.5,24.6,00.0,34.5,27.3,13.2,0001.2,0025.16,0010.82,0009.17
2022-03-04 14:12:00,,0819.8,5.01,0.00,25.4,24.6,00.0,34.5,27.2,13.5,0001.2,0024.85,0010.94,0009.26
2022-03-04 14:13:00,,0819.8,5.00,0.00,25.4,24.6,00.0,34.4,27.2,13.3,0001.3,0025.13,0011.11,0009.35
2022-03-04 14:14:00,,0819.8,5.00,0.00,25.4,24.6,00.0,34.4,27.2,13.1,0001.5,0023.85,0011.20,0009.45
2022-03-04 14:15:00,,0819.8,5.00,0.00,25.4,24.5,00.0,34.4,27.1,13.1,0001.6,0024.03,0011.28,0009.57
2022-03-04 14:16:00,,0819.9,4.99,0.00,25.3,24.5,00.0,34.4,27.1,13.4,0001.4,0024.42,0011.46,0009.70
2022-03-04 14:17:00,,0819.9,4.99,0.00,25.3,24.5,00.0,34.4,27.1,13.6,0001.1,0024.30,0011.62,0009.84
2022-03-04 14:18:00,,0819.9,5.00,0.00,25.3,24.5,00.0,34.4,27.1,14.0,0000.9,0024.33,0011.81,0010.00
2022-03-04 14:19:00,,0819.9,5.00,0.00,25.3,24.5,00.0,34.4,27.1,14.4,0001.0,0024.74,0012.00,0010.18
2022-03-04 14:20:00,,0819.9,5.00,0.00,25.3,24.5,00.0,34.4,27.0,14.4,0000.9,0024.64,0012.24,0010.38
2022-03-04 14:21:00,,0819.9,5.01,0.00,25.3,24.4,00.0,34.4,27.0,14.4,0001.1,0024.99,0012.56,0010.61
2022-03-04 14:22:00,,0819.9,5.01,0.00,25.2,24.4,00.0,34.3,27.0,14.3,0000.8,0026.18,0012.82,0010.83
2022-03-04 14:23:00,,0819.8,5.00,0.00,25.2,24.4,00.0,34.3,27.0,14.4,0000.7,0026.82,0013.18,0011.07
2022-03-04 14:24:00,,0819.8,5.00,0.00,25.2,24.4,00.0,34.3,27.0,14.3,0000.6,0027.13,0013.42,0011.29
2022-03-04 14:25:00,,0819.8,5.00,0.00,25.2,24.4,00.0,34.3,27.0,14.4,0000.2,0026.82,0013.64,0011.48
2022-03-04 14:26:00,,0819.8,5.00,0.00,25.2,24.4,00.0,34.3,27.0,14.4,0000.0,0027.09,0013.88,0011.64
2022-03-04 14:27:00,,0819.8,5.00,0.00,25.2,24.4,00.0,34.3,27.1,14.4,-000.0,0027.03,0014.05,0011.80
2022-03-04 14:28:00,,0819.8,4.99,0.00,25.2,24.5,00.0,34.3,27.0,14.3,-000.1,0028.22,0014.23,0011.93
2022-03-04 14:29:00,,0819.8,5.00,0.00,25.3,24.5,00.0,34.3,27.1,14.2,-000.2,0029.39,0014.34,0012.05
2022-03-04 14:30:00,,0819.8,5.00,0.00,25.3,24.5,00.0,34.3,27.1,14.2,-000.1,0028.84,0014.43,0012.15
2022-03-04 14:31:00,,0819.8,4.99,0.00,25.3,24.5,00.0,34.3,27.1,14.3,-000.2,0028.66,0014.44,0012.18
2022-03-04 14:32:00,,0819.8,5.00,0.00,25.3,24.5,00.0,34.3,27.1,14.0,-000.3,0028.16,0014.35,0012.15
2022-03-04 14:33:00,,0819.7,5.00,0.00,25.3,24.5,00.0,34.3,27.1,14.4,-000.1,0027.08,0014.36,0012.14
2022-03-04 14:34:00,,0819.7,5.00,0.00,25.3,24.5,00.0,34.3,27.1,14.2,-000.0,0027.14,0014.28,0012.13
2022-03-04 14:35:00,,0819.7,5.00,0.00,25.3,24.6,00.0,34.3,27.1,13.6,-000.2,0026.65,0014.16,0012.05
2022-03-04 14:36:00,,0819.8,5.01,0.00,25.3,24.6,00.0,34.3,27.2,13.3,-000.3,0026.09,0013.92,0011.89
2022-03-04 14:37:00,,0819.8,5.01,0.00,25.3,24.6,00.0,34.3,27.2,15.0,-000.4,0026.07,0013.76,0011.81
2022-03-04 14:38:00,,0819.8,5.00,0.00,25.3,24.6,00.0,34.3,27.2,15.2,-000.5,0026.89,0013.68,0011.72
2022-03-04 14:39:00,,0819.8,5.00,0.00,25.3,24.6,00.0,34.3,27.1,14.8,-000.2,0026.50,0013.55,0011.61
2022-03-04 14:40:00,,0819.8,5.00,0.00,25.3,24.6,00.0,34.3,27.1,15.3,0000.1,0025.51,0013.44,0011.52
2022-03-04 14:41:00,,0819.8,5.01,0.00,25.3,24.5,00.0,34.3,27.1,15.5,0000.1,0026.29,0013.40,0011.43
2022-03-04 14:42:00,,0819.8,5.00,0.00,25.3,24.5,00.0,34.3,27.1,15.5,0000.2,0026.30,0013.33,0011.35
2022-03-04 14:43:00,,0819.8,5.00,0.00,25.3,24.5,00.0,34.3,27.0,15.4,0000.5,0027.65,0013.26,0011.31
2022-03-04 14:44:00,,0819.8,4.99,0.00,25.3,24.5,00.0,34.3,27.0,15.4,0000.5,0027.69,0013.18,0011.26
2022-03-04 14:45:00,,0819.8,5.00,0.00,25.3,24.5,00.0,34.3,27.1,15.7,0000.4,0028.32,0013.15,0011.21
2022-03-04 14:46:00,,0819.8,5.00,0.00,25.3,24.5,00.0,34.3,27.1,16.0,0000.6,0030.01,0013.13,0011.18
2022-03-04 14:47:00,,0819.7,5.00,0.00,25.3,24.5,00.0,34.3,27.1,16.3,0000.8,0030.33,0013.17,0011.18
2022-03-04 14:48:00,,0819.7,5.00,0.00,25.3,24.6,00.0,34.3,27.1,16.9,0000.6,0029.81,0013.08,0011.08
2022-03-04 14:49:00,,0819.7,5.00,0.00,25.3,24.6,00.0,34.3,27.2,17.1,0000.6,0029.41,0012.97,0010.96
2022-03-04 14:50:00,,0819.7,5.01,0.00,25.3,24.6,00.0,34.3,27.2,16.7,0000.4,0029.35,0012.84,0010.86
2022-03-04 14:51:00,,0819.7,5.01,0.00,25.4,24.6,00.0,34.3,27.2,16.2,0000.3,0029.31,0012.81,0010.79
2022-03-04 14:52:00,,0819.7,5.00,0.00,25.4,24.6,00.0,34.3,27.2,15.7,0000.2,0029.92,0012.73,0010.71
2022-03-04 14:53:00,,0819.7,4.99,0.00,25.4,24.7,00.0,34.3,27.2,15.5,0000.3,0029.68,0012.59,0010.60
2022-03-04 14:54:00,,0819.7,5.00,0.00,25.4,24.7,00.0,34.3,27.3,15.0,0000.2,0028.12,0012.43,0010.44
2022-03-04 14:55:00,,0819.7,4.98,0.00,25.4,24.7,00.0,34.3,27.3,15.2,-000.1,0027.90,0012.24,0010.24
2022-03-04 14:56:00,,0819.7,5.00,0.00,25.5,24.7,00.0,34.3,27.3,15.1,-000.1,0026.72,0012.00,0010.04
2022-03-04 14:57:00,,0819.7,5.00,0.00,25.5,24.7,00.0,34.4,27.3,14.1,-000.1,0024.64,0011.78,0009.84
2022-03-04 14:58:00,,0819.7,5.00,0.00,25.5,24.8,00.0,34.4,27.3,14.0,-000.3,0023.66,0011.51,0009.62
2022-03-04 14:59:00,,0819.7,5.00,0.00,25.5,24.8,00.0,34.4,27.3,14.7,-000.2,0023.91,0011.32,0009.44
